This is the latest recevied weather packets stored in our database for station/object KY4LEX. If no packets are shown the sender has not sent any weather packets the latest 10 day(s).
| Time | Temp. | Humidity | Pressure | Rain* | Wind** | Luminosity | Snow |
|---|---|---|---|---|---|---|---|
| 1777417036 | 23.33° C | 67% | 1019.4 hPa | 0 mm | - | 53 W/m² | - |
| 1777416731 | 23.89° C | 66% | 1019.3 hPa | 0 mm | - | 53 W/m² | - |
| 1777416426 | 23.89° C | 65% | 1019 hPa | 0 mm | - | 58 W/m² | - |
| 1777416121 | 23.89° C | 63% | 1019.1 hPa | 0 mm | - | 52 W/m² | - |
| 1777415816 | 24.44° C | 64% | 1019.1 hPa | 0 mm | - | 59 W/m² | - |
| 1777415512 | 24.44° C | 62% | 1019.1 hPa | 0 mm | - | 124 W/m² | - |
| 1777415208 | 24.44° C | 60% | 1019.2 hPa | 0 mm | - | 123 W/m² | - |
| 1777414904 | 24.44° C | 60% | 1018.9 hPa | 0 mm | - | 83 W/m² | - |
| 1777414602 | 25° C | 57% | 1018.5 hPa | 0 mm | - | 195 W/m² | - |
| 1777414298 | 25° C | 58% | 1018.5 hPa | 0 mm | - | 209 W/m² | - |
| 1777413993 | 25° C | 58% | 1018.4 hPa | 0 mm | - | 105 W/m² | - |
| 1777413688 | 25° C | 59% | 1018.1 hPa | 0 mm | - | 199 W/m² | - |
| 1777413384 | 25° C | 57% | 1018.5 hPa | 0 mm | - | 250 W/m² | - |
| 1777413080 | 25.56° C | 59% | 1018.5 hPa | 0 mm | - | 120 W/m² | - |
| 1777412775 | 25.56° C | 58% | 1018.5 hPa | 0 mm | - | 144 W/m² | - |
| 1777412475 | 25° C | 58% | 1019 hPa | 0 mm | - | 301 W/m² | - |
| 1777412172 | 25° C | 58% | 1019 hPa | 0 mm | - | 204 W/m² | - |
| 1777411869 | 25° C | 58% | 1019 hPa | 0 mm | - | 198 W/m² | - |
| 1777411567 | 25° C | 58% | 1019.1 hPa | 0 mm | - | 145 W/m² | - |
| 1777411262 | 25° C | 61% | 1019 hPa | 0 mm | - | 326 W/m² | - |
| 1777410956 | 25° C | 59% | 1019.5 hPa | 0 mm | - | 211 W/m² | - |
| 1777410656 | 25.56° C | 60% | 1019.5 hPa | 0 mm | - | 327 W/m² | - |
| 1777410351 | 25° C | 58% | 1019.3 hPa | 0 mm | - | 331 W/m² | - |
| 1777410046 | 25.56° C | 58% | 1019.6 hPa | 0 mm | - | 271 W/m² | - |
| 1777409745 | 25° C | 58% | 1019.4 hPa | 0 mm | - | 348 W/m² | - |
* Rain latest hour (hover to see other rain measurements)
** Current wind speed in m/s (hover to see current wind gust speed)